GEFSMA_500_meanwind_252.txt.gz
Wind_Speed
15 16 16 16 16 17 17 18 18 19 20 20 21 21 21 21 22 22 21 21 22 23 22 22 23 24 25 25 24 24 25 25 25 25 25 25 25 25 25 24 23 22 22
16 17 17 17 17 17 18 18 18 19 20 20 20 20 20 20 21 22 23 22 22 23 23 23 24 24 25 25 25 25 25 26 26 26 26 25 25 26 26 26 25 24 23
17 18 18 17 17 18 18 18 18 19 19 19 20 20 20 21 21 21 22 22 22 23 23 24 25 26 26 26 26 26 26 27 27 27 27 27 26 26 26 27 27 27 25
17 17 17 17 17 18 19 19 19 19 19 19 20 20 21 22 22 22 22 22 22 23 23 23 23 24 25 27 27 27 26 26 27 27 27 27 27 27 27 28 29 29 27
16 17 17 17 17 18 19 19 20 20 21 21 21 21 22 22 23 23 24 24 23 23 23 24 24 24 24 25 27 27 27 27 28 28 27 27 28 29 28 28 29 29 29
17 17 17 17 18 19 19 19 20 21 21 22 22 22 23 23 23 24 24 25 25 25 24 24 24 25 25 26 27 28 28 29 29 29 28 28 29 29 29 29 30 30 30
17 17 17 17 18 18 19 19 20 20 21 22 22 22 23 23 23 22 22 23 24 25 25 25 25 25 26 26 27 27 28 29 29 30 30 30 29 29 30 30 31 31 31
17 17 17 17 18 19 19 19 19 20 21 21 21 22 23 23 23 23 23 23 23 24 24 24 25 24 25 26 27 27 28 29 29 30 31 32 31 31 31 31 31 32 32
17 17 18 18 19 19 19 19 18 18 18 19 21 22 22 23 23 22 22 23 23 23 24 24 25 24 25 26 26 27 27 28 29 30 32 32 33 33 32 33 33 32 32
18 18 19 19 19 19 19 19 18 19 19 20 20 21 21 22 21 21 22 22 23 24 24 24 24 24 25 26 26 26 27 28 29 30 32 33 33 34 34 34 34 34 33
18 18 18 18 18 18 18 19 19 19 20 20 20 20 21 21 21 21 22 23 23 24 24 25 25 25 25 25 26 26 27 28 29 30 31 32 33 34 34 34 35 34 35
17 18 18 18 18 18 18 19 19 19 19 20 20 20 21 21 22 22 22 23 23 24 24 25 25 26 26 26 26 27 28 29 29 31 31 32 33 33 34 35 36 36 36
18 18 18 18 19 19 19 19 19 19 19 19 19 20 20 21 21 21 21 22 23 24 24 24 25 25 25 26 26 27 27 28 29 30 31 31 33 34 34 35 35 36 37
18 18 18 18 19 19 19 19 19 18 18 19 19 19 20 20 20 21 21 22 22 23 23 23 24 24 24 25 25 26 27 28 30 30 31 32 32 33 34 34 34 35 36
18 18 18 18 19 18 18 18 18 17 18 18 18 19 19 18 19 20 20 21 21 21 22 23 23 24 24 24 24 25 26 27 28 29 30 30 31 31 33 33 33 34 35
18 18 17 18 18 18 18 18 18 18 18 18 18 18 18 17 18 18 19 20 20 20 21 21 22 23 24 25 25 25 26 26 26 27 28 29 29 29 30 31 32 32 34
17 17 18 18 18 18 18 18 18 19 18 17 17 17 17 17 17 17 18 18 19 20 21 21 22 23 22 22 23 23 24 25 25 26 26 26 26 27 28 28 29 30 31
16 17 17 18 18 17 17 17 18 18 18 17 17 17 17 16 16 17 17 17 18 19 19 20 20 21 21 21 21 21 22 23 23 23 24 25 25 26 26 27 28 28 29
17 18 18 17 17 16 16 16 17 17 16 16 16 16 16 16 16 16 16 16 16 17 18 18 17 18 18 18 18 19 19 20 21 21 22 23 23 24 26 26 27 27 27
17 17 17 17 17 16 16 16 16 16 15 15 15 15 15 15 15 15 15 15 15 16 17 16 16 15 16 16 17 17 17 17 18 19 20 21 22 23 24 25 26 26 26
17 17 17 17 17 16 16 15 15 15 15 14 14 14 14 14 14 14 14 15 15 15 15 15 14 14 13 14 14 15 15 15 16 17 18 19 20 22 23 24 25 25 26
17 17 17 17 16 16 15 15 15 15 14 14 13 14 13 13 13 14 14 14 14 14 13 13 12 12 11 12 13 13 13 13 13 15 16 17 19 20 21 22 24 24 25
16 16 16 16 15 15 15 15 15 14 14 13 13 13 13 13 13 13 13 13 13 12 12 12 11 11 10 10 11 11 10 11 12 12 14 15 17 18 19 20 22 23 24
16 16 15 15 15 14 15 15 15 14 14 13 13 13 13 12 12 12 12 12 11 11 10 11 11 11 10 10 9 9 9 10 10 11 13 14 16 17 18 19 20 20 21
17 16 15 15 14 14 15 15 14 13 13 13 13 13 12 11 11 11 11 11 10 10 9 9 10 10 10 9 8 9 9 9 9 10 11 12 14 15 16 18 19 19 19
17 16 15 14 14 14 14 14 13 13 12 12 12 12 11 11 11 11 11 10 10 9 9 8 9 10 10 9 9 8 8 9 9 9 10 11 12 14 15 16 17 18 18

GEFSMA_500_meanwind_258.txt.gz
Wind_Speed
15 15 16 17 16 16 17 16 16 16 16 17 17 18 19 20 21 20 19 20 21 21 21 21 22 23 23 23 23 23 23 23 23 22 22 22 22 22 21 21 20 20 19
16 16 16 17 17 17 17 17 17 17 17 18 18 19 19 20 21 21 20 21 21 22 22 22 23 24 23 23 24 24 24 24 24 24 23 23 23 23 23 23 22 22 22
16 16 16 16 17 18 18 18 17 17 17 18 18 19 19 20 20 21 22 21 22 22 22 23 23 24 24 24 24 25 25 25 25 25 24 24 24 24 24 24 24 23 23
16 16 16 16 17 18 18 18 17 17 18 18 18 19 19 19 19 20 21 21 22 22 23 23 23 24 24 25 25 25 25 26 26 26 25 25 25 25 25 25 24 24 24
16 16 17 17 17 18 18 18 18 18 18 19 20 19 19 20 20 21 21 22 22 22 23 22 22 23 23 24 25 25 25 26 26 26 26 26 26 26 26 26 26 25 24
16 17 17 17 18 18 18 18 17 18 19 19 19 19 20 20 20 21 21 22 22 23 24 23 22 22 23 24 24 25 25 25 25 26 26 26 26 27 27 27 27 26 25
17 17 17 18 18 18 18 18 19 19 19 19 19 19 20 20 20 21 21 21 22 22 23 23 23 22 22 23 25 25 26 27 26 26 27 27 27 28 28 28 27 27 27
18 17 17 18 18 18 18 18 18 18 19 19 19 19 19 19 19 20 21 21 22 22 23 23 23 23 23 23 24 25 26 28 28 28 28 28 29 29 29 29 29 29 29
17 17 18 18 18 18 19 19 19 19 18 18 19 20 20 19 19 20 20 21 22 22 23 23 23 24 24 24 25 26 26 27 28 29 29 29 29 30 30 31 31 31 32
17 18 18 19 19 18 18 18 18 18 19 19 19 20 20 20 20 20 20 21 22 22 23 23 23 24 24 24 24 25 26 27 28 28 29 29 29 30 31 32 32 32 32
17 17 18 18 18 18 18 19 19 19 19 19 19 19 20 20 21 21 21 21 22 23 23 23 23 24 24 24 24 24 25 26 27 28 28 29 30 31 32 33 34 33 33
18 18 19 18 18 19 19 19 18 19 19 19 19 20 20 20 21 21 22 22 22 23 23 23 23 24 24 24 24 24 25 26 27 28 29 30 31 32 32 33 34 34 34
19 19 19 19 19 19 19 19 18 19 19 20 20 20 20 21 21 22 22 22 23 23 23 23 23 24 24 25 25 25 25 25 27 28 29 29 30 31 32 32 33 33 33
19 20 20 19 19 20 19 19 19 19 20 21 21 21 21 21 22 22 22 22 23 23 23 24 24 24 24 24 25 25 26 26 27 28 29 29 30 31 31 32 32 32 32
19 20 20 19 20 20 20 19 20 21 21 21 21 21 21 22 21 21 22 22 22 22 22 23 24 24 24 23 24 25 26 26 26 27 28 29 30 31 31 31 31 31 31
20 20 19 19 20 21 20 20 20 21 21 21 21 20 20 20 20 20 20 20 20 21 21 22 23 23 23 23 24 24 24 25 26 26 27 28 29 29 30 30 31 31 31
20 19 19 20 20 20 20 20 20 20 20 20 20 19 19 19 19 19 19 19 19 20 21 21 22 22 22 22 23 23 23 24 24 25 25 26 27 28 28 28 29 30 31
19 19 20 20 20 20 20 20 19 19 19 19 18 18 18 18 19 19 18 18 18 19 19 19 20 21 21 21 20 21 21 22 22 22 24 24 24 25 25 26 27 28 29
19 19 20 20 19 19 19 20 19 19 18 18 18 18 17 18 18 18 17 17 18 18 18 18 18 19 19 19 19 20 20 20 20 20 20 21 21 22 23 24 25 26 27
20 20 19 19 19 19 19 19 18 18 17 17 17 17 17 17 17 17 17 17 17 17 17 17 17 17 18 18 18 18 18 18 19 18 18 17 18 18 20 21 23 24 25
20 20 19 19 19 19 18 18 18 17 17 16 16 16 16 16 17 17 17 17 17 17 17 16 16 17 17 18 18 18 18 17 17 16 16 16 16 16 18 19 20 21 23
20 19 19 18 18 18 17 17 17 17 15 15 16 16 16 17 16 16 16 16 16 17 16 16 16 17 17 17 17 17 16 15 14 14 14 14 15 15 16 17 18 19 21
19 19 19 18 18 17 16 16 16 15 14 14 14 15 15 15 14 15 15 16 16 17 17 17 16 17 16 15 15 14 14 14 13 12 12 13 14 14 15 16 17 18 20
20 20 19 18 18 17 16 16 15 13 13 13 13 14 13 13 13 14 15 16 16 16 16 16 17 16 15 13 13 12 12 12 11 11 12 12 12 13 14 14 15 16 18
20 19 19 18 18 17 16 15 15 13 12 13 13 13 13 12 12 13 13 14 14 15 16 15 15 14 14 13 11 11 10 10 10 11 11 12 12 13 13 14 14 15 17
19 19 19 18 17 16 16 15 14 14 13 13 13 13 13 13 13 13 13 13 13 13 13 13 13 13 13 12 11 10 10 10 10 10 10 11 12 12 12 13 13 13 14

GEFSMA_500_meanwind_264.txt.gz
Wind_Speed
14 14 13 13 12 12 12 13 13 14 14 14 15 16 17 18 18 17 17 17 17 18 18 19 18 18 18 19 19 20 20 21 20 20 20 20 20 20 20 19 19 19 19
14 14 14 13 12 12 12 13 14 14 15 14 14 15 17 18 19 19 18 18 18 19 19 19 19 20 20 20 20 21 21 21 22 22 22 21 21 22 22 21 20 20 20
13 14 14 14 13 13 13 13 14 15 15 15 15 16 17 18 18 19 19 18 18 18 19 19 20 21 21 21 21 21 22 22 23 23 23 23 23 23 23 23 22 22 21
14 15 14 13 13 13 14 14 15 16 15 16 16 16 17 18 19 19 19 19 19 19 19 19 20 21 21 22 22 22 22 23 23 23 23 24 24 25 24 24 24 24 23
15 15 14 13 13 13 14 15 15 15 16 17 17 17 17 18 19 19 19 20 20 20 20 20 21 21 22 21 22 23 23 23 23 23 23 24 24 25 25 25 25 25 25
14 14 13 13 13 14 14 15 15 15 16 17 17 18 18 19 19 20 20 19 20 20 20 20 21 21 21 22 21 22 23 24 23 23 24 24 24 25 26 26 26 26 26
13 13 12 13 13 14 14 15 16 16 16 17 17 18 18 18 19 20 20 19 20 21 20 20 20 20 20 21 22 22 23 23 24 24 25 25 25 25 26 26 27 26 26
13 12 13 13 13 13 14 15 15 15 16 17 17 17 18 18 19 19 20 20 20 21 22 21 21 21 21 21 22 22 23 25 25 25 25 25 26 26 26 26 26 27 27
14 13 13 13 13 14 15 15 16 16 16 16 16 17 17 17 17 18 19 20 20 21 22 22 22 22 22 22 23 23 24 24 25 25 26 26 27 27 27 27 27 28 28
15 14 14 14 15 16 16 16 16 16 16 17 16 16 17 17 17 18 19 20 20 20 21 22 22 22 22 22 23 23 24 23 24 25 26 27 27 28 29 29 29 30 30
15 15 15 15 16 16 16 16 16 16 16 16 16 16 16 17 18 19 19 20 20 20 20 20 21 22 22 22 22 23 23 24 25 25 25 26 28 28 29 30 30 31 32
16 15 16 16 17 17 17 17 16 16 16 16 16 15 15 16 17 18 19 20 20 20 20 20 20 21 22 23 23 23 23 24 25 25 26 27 27 28 29 31 31 31 31
16 17 17 17 18 18 18 17 17 16 16 16 15 15 16 16 17 18 19 20 19 20 20 21 22 22 22 23 24 24 24 24 24 25 26 27 27 28 29 30 32 32 32
16 16 17 17 18 18 18 17 17 17 16 16 16 16 16 17 17 18 18 18 19 20 21 22 23 23 23 24 24 24 24 24 25 25 26 26 27 28 29 30 30 31 32
16 16 17 17 18 18 18 17 17 17 17 16 16 16 17 17 17 17 18 18 19 20 21 22 23 24 24 24 24 24 25 25 25 25 25 25 26 27 28 29 30 31 31
16 16 16 16 17 18 18 17 16 17 17 18 18 18 18 18 18 18 19 19 19 20 21 22 22 23 23 24 24 24 24 24 24 24 24 24 25 27 27 28 29 31 31
16 16 16 16 17 18 18 18 17 18 18 18 18 18 18 18 19 19 19 19 19 20 20 20 20 21 22 23 23 24 23 23 23 23 23 23 24 25 25 26 27 29 30
16 16 16 16 17 18 18 18 18 18 17 17 17 17 17 18 18 19 18 18 18 18 18 18 19 19 20 21 22 23 22 22 22 23 23 23 23 22 23 24 25 27 28
17 17 17 17 17 17 18 18 18 17 16 16 15 15 15 16 17 17 17 17 17 17 17 17 17 18 19 20 21 21 22 21 22 22 22 22 22 22 21 22 23 25 26
17 18 18 18 17 17 17 17 16 15 13 13 13 13 14 15 16 16 16 16 16 17 16 17 17 17 18 18 19 19 20 20 21 21 21 21 21 21 21 21 22 22 23
19 19 19 18 17 17 17 16 14 13 13 12 13 13 12 13 14 15 15 15 15 15 16 16 16 17 17 18 18 18 19 19 19 20 20 19 19 19 20 19 19 19 21
19 19 18 18 18 17 16 15 14 13 13 12 12 12 12 12 12 13 14 15 15 15 16 16 16 17 17 17 18 18 18 19 19 18 18 18 18 18 18 18 18 18 19
19 19 19 18 18 17 16 15 14 13 13 12 12 11 12 12 12 12 13 14 15 15 16 16 17 17 16 16 16 17 17 17 17 17 17 17 17 17 17 17 16 16 17
19 19 19 19 18 17 15 15 14 13 13 12 12 13 12 12 12 13 13 13 14 15 15 16 16 15 15 15 15 15 15 15 15 16 16 15 15 15 15 15 15 15 16
20 19 19 19 18 16 16 14 13 13 13 13 13 13 12 12 12 12 12 13 13 13 14 15 15 15 15 14 14 14 14 14 13 14 14 14 13 14 14 14 14 14 15
20 19 19 18 17 16 16 15 14 13 13 13 13 13 13 13 13 13 13 13 13 13 13 13 14 14 14 14 14 13 13 13 13 13 13 12 12 12 13 13 13 14 15

GEFSMA_500_meanwind_270.txt.gz
Wind_Speed
12 12 13 11 11 12 12 13 13 12 12 13 14 14 14 15 15 15 15 15 15 15 15 14 14 15 16 18 19 19 19 19 19 19 18 18 17 17 16 16 17 17 17
12 12 12 12 12 12 11 12 12 11 12 13 14 14 14 14 15 14 15 16 16 16 16 16 16 16 17 18 18 19 19 19 19 19 19 19 18 18 18 18 19 18 18
12 11 11 12 12 12 13 13 13 12 13 13 13 14 14 15 15 16 16 16 17 17 17 17 16 16 17 18 19 20 21 20 20 20 20 20 19 19 19 20 20 20 20
12 12 11 11 12 12 13 13 13 13 13 14 14 14 15 16 16 17 17 17 18 18 18 18 17 17 18 18 18 19 20 21 21 21 21 20 20 20 20 21 21 21 21
12 12 11 12 12 12 12 13 13 14 14 15 15 15 16 17 17 18 18 18 18 19 19 19 19 18 18 18 18 19 21 22 22 22 21 22 22 21 21 21 22 22 22
13 12 12 13 13 12 12 13 13 14 15 15 16 16 17 17 18 19 19 19 19 19 19 19 19 19 18 18 19 19 20 22 22 23 23 23 23 22 23 23 23 23 23
13 12 13 13 13 13 13 13 13 14 15 16 17 17 17 18 19 20 20 21 20 20 19 19 19 19 19 20 19 20 20 21 23 22 23 24 25 24 24 24 24 24 25
13 14 14 14 14 13 13 14 15 15 15 16 17 18 18 18 19 20 21 22 21 21 20 20 20 20 20 20 20 21 21 21 22 22 23 24 24 24 24 25 25 25 25
14 14 14 15 15 15 14 15 16 16 16 16 17 17 17 18 19 19 21 22 22 22 22 21 22 22 22 21 21 22 22 22 22 23 24 25 25 26 25 26 26 26 26
14 15 14 15 15 15 15 16 17 17 18 18 18 18 18 18 18 18 19 20 22 22 22 22 22 22 22 22 22 22 23 23 23 23 24 25 26 26 26 26 26 27 27
15 14 15 15 15 16 16 17 18 18 19 19 19 18 18 18 17 17 18 19 20 20 21 22 23 23 23 22 22 23 24 24 24 24 25 25 25 26 26 27 27 27 28
15 15 15 15 16 16 17 17 18 18 19 19 18 18 17 17 17 18 18 18 19 19 20 21 22 23 23 23 23 24 24 24 24 24 24 25 25 25 26 26 27 27 27
15 16 16 16 16 17 17 18 18 18 18 18 18 18 18 18 18 19 18 19 19 20 21 21 22 23 24 24 24 24 24 25 25 24 25 25 25 26 26 26 27 28 28
15 15 16 16 17 17 17 18 18 18 18 18 19 19 19 19 19 19 19 19 20 20 21 22 22 23 25 24 24 24 24 25 25 25 25 25 25 26 26 27 28 28 29
15 15 16 16 17 18 18 18 18 19 19 19 19 19 19 19 20 20 20 21 21 21 21 22 23 24 24 25 24 24 25 25 26 26 25 25 26 26 27 27 28 28 29
15 15 16 16 17 18 19 19 19 19 19 19 18 18 18 19 20 20 21 21 22 23 23 24 24 23 24 24 25 25 25 25 25 25 25 25 25 26 27 27 28 28 29
15 15 16 17 18 19 20 20 19 18 18 18 18 18 18 18 19 19 20 21 21 22 23 23 23 23 23 24 25 25 25 25 24 24 24 25 25 25 26 27 27 28 28
16 16 17 18 19 19 20 19 18 18 18 17 18 18 18 18 18 19 20 21 21 21 21 21 22 22 23 23 23 23 23 23 23 24 24 24 25 25 25 26 27 28 28
17 18 18 19 18 19 19 19 18 18 17 17 17 18 18 19 19 20 20 21 21 21 21 20 21 21 21 22 22 22 23 23 23 24 24 24 24 25 25 25 26 27 27
18 19 19 19 19 19 19 19 19 19 18 18 18 18 18 18 18 19 19 19 19 19 20 20 20 20 20 21 21 21 22 23 24 24 23 24 24 24 24 25 25 26 26
19 19 19 19 20 19 19 19 19 19 18 17 17 17 18 17 17 18 18 18 19 18 18 19 19 19 19 20 20 20 21 22 22 22 22 23 23 23 23 24 24 24 25
19 20 20 20 20 20 19 19 20 19 18 17 17 17 17 16 17 18 18 18 18 17 17 18 18 18 18 19 20 20 21 21 21 21 21 21 22 22 23 23 23 23 23
20 20 20 20 20 20 20 20 19 18 18 18 18 18 16 16 16 17 18 18 17 17 17 18 18 18 18 18 19 19 19 19 20 20 20 20 20 21 21 21 21 21 22
21 21 21 21 20 20 20 20 19 18 18 18 18 18 17 17 17 18 18 18 17 17 17 17 17 17 18 18 18 18 18 18 19 19 19 19 19 20 20 20 20 19 19
22 22 21 21 20 20 20 20 19 19 19 19 18 18 18 17 17 18 18 18 18 18 17 17 17 17 17 17 17 17 18 18 17 17 17 18 18 19 19 19 19 19 18
22 22 22 21 21 20 20 19 19 19 19 19 18 18 18 18 17 17 18 18 17 18 18 17 17 17 17 17 18 18 17 17 17 16 16 17 17 18 18 19 18 18 17

GEFSMA_500_meanwind_276.txt.gz
Wind_Speed
10 10 10 10 10 10 10 10 11 12 12 12 12 12 12 12 13 13 14 15 15 15 15 15 14 15 16 16 16 16 16 17 17 17 16 17 17 17 17 16 16 16 16
10 10 10 10 10 10 10 10 10 11 12 13 13 13 13 13 13 14 14 15 15 15 15 15 15 15 15 16 16 17 18 17 18 18 18 18 18 19 19 17 17 17 17
10 10 9 10 9 10 10 10 11 11 12 13 13 13 14 14 14 14 15 15 15 16 17 16 15 15 15 16 17 17 18 18 19 19 19 19 18 19 19 18 18 18 18
11 11 11 10 10 10 10 10 11 12 12 13 14 14 15 15 15 15 15 16 17 17 17 16 16 16 15 15 16 18 19 19 19 20 20 20 20 20 20 20 19 19 18
12 12 12 12 12 11 11 11 11 12 12 13 14 15 15 16 15 15 16 17 18 18 17 17 16 16 16 16 17 17 18 19 20 20 20 20 21 21 20 21 21 21 21
12 12 12 12 12 12 12 12 13 13 13 14 14 16 16 16 17 17 17 18 18 18 18 19 18 18 19 18 17 17 18 19 20 20 21 21 21 22 22 22 23 23 23
13 13 13 13 13 13 13 14 14 14 13 14 14 15 16 16 17 18 18 18 18 19 19 19 20 19 20 20 19 19 19 19 20 21 21 22 22 22 23 24 24 23 23
14 14 14 14 14 14 14 14 14 14 15 15 15 15 15 16 16 17 18 19 19 19 20 20 20 21 21 21 21 21 21 21 21 22 22 22 22 23 23 24 25 25 24
15 15 15 15 16 16 15 16 16 15 16 16 16 16 15 16 16 16 17 18 19 20 20 19 20 21 21 21 21 22 22 23 23 23 23 23 23 23 24 25 24 25 26
16 16 16 16 17 17 17 17 17 16 16 16 17 17 17 16 17 16 16 17 18 19 20 20 21 21 21 21 21 22 22 22 23 24 24 24 24 24 24 25 24 25 25
17 18 18 17 17 18 17 17 17 17 16 16 16 16 17 17 17 17 17 17 17 18 19 20 21 21 22 22 22 23 22 23 23 23 23 23 24 24 24 24 25 25 26
18 19 18 18 19 19 19 18 17 17 17 17 16 17 17 18 18 18 18 18 18 19 19 20 21 22 22 22 23 23 23 23 24 25 25 25 24 24 24 24 25 26 27
18 18 18 18 19 19 20 19 18 18 18 17 17 17 17 18 19 19 19 19 20 20 20 21 22 22 23 23 23 24 25 24 24 25 25 25 25 24 24 24 25 26 27
17 17 17 17 18 19 18 19 19 18 18 18 18 18 18 18 18 18 19 19 20 20 20 22 23 23 24 23 24 25 25 25 25 24 24 25 25 24 24 24 25 26 26
16 16 16 16 16 17 16 16 17 18 18 18 18 18 18 19 19 19 19 19 20 20 21 22 22 22 24 25 25 25 25 25 25 25 24 24 25 25 25 25 25 26 26
16 15 15 16 15 16 16 17 17 18 19 19 19 19 19 19 20 20 19 20 20 22 22 22 23 23 24 24 25 25 25 24 25 24 24 24 24 25 25 25 25 26 26
16 15 16 16 17 18 18 18 18 18 19 20 20 20 20 20 20 20 20 20 21 21 21 21 22 22 23 23 25 26 25 25 24 24 24 24 24 25 25 25 25 26 27
15 16 16 17 17 18 18 19 18 18 19 20 20 20 20 20 20 20 20 20 21 21 21 21 21 21 22 22 23 24 24 24 24 25 24 25 25 25 25 25 26 27 27
17 17 17 17 17 18 18 18 19 19 19 19 19 20 20 20 20 20 20 20 20 21 21 21 21 21 21 22 23 23 23 24 25 25 25 25 25 25 26 26 26 26 27
18 18 18 18 18 18 19 20 20 20 19 19 19 19 19 19 20 20 20 20 20 21 21 21 21 21 21 22 22 23 22 22 23 24 25 26 26 26 26 26 26 26 27
20 19 19 19 19 20 20 20 20 20 19 19 19 19 19 19 20 20 21 21 21 21 21 20 20 21 21 21 22 22 21 20 21 22 24 26 26 26 26 26 26 26 26
21 21 20 21 21 21 21 21 20 19 19 19 19 20 20 21 21 21 21 21 21 21 20 20 20 20 20 20 20 20 19 20 20 21 22 24 25 25 26 26 26 26 26
22 21 22 22 22 22 22 21 20 19 19 19 20 21 21 22 22 22 21 21 21 21 20 20 20 20 19 20 20 20 20 20 19 19 19 21 22 23 24 25 25 25 25
22 22 22 23 23 23 22 22 21 21 21 21 21 21 21 21 21 21 20 20 20 20 21 21 20 20 20 19 20 20 20 20 19 19 19 19 20 21 21 22 22 23 23
22 22 22 22 22 22 22 22 22 22 22 21 21 21 22 21 21 21 21 21 21 22 21 21 21 21 20 19 20 20 20 20 20 19 19 19 19 20 20 20 20 20 21
22 22 22 22 22 22 21 21 21 21 21 21 21 22 21 21 20 21 22 22 22 22 22 22 21 21 20 20 20 20 20 20 20 19 18 19 19 19 19 19 20 20 20